This is the latest recevied weather packets stored in our database for station/object VANOK. If no packets are shown the sender has not sent any weather packets the latest 10 day(s).
| Time | Temp. | Humidity | Pressure | Rain* | Wind** | Luminosity | Snow |
|---|---|---|---|---|---|---|---|
| 1777837633 | 5.56° C | 72% | 1008.7 hPa | - | - | - | - |
| 1777836433 | 5.56° C | 71% | 1008.7 hPa | - | - | - | - |
| 1777835233 | 6.11° C | 71% | 1008.8 hPa | - | - | - | - |
| 1777834034 | 6.11° C | 70% | 1008.9 hPa | - | - | - | - |
| 1777832833 | 6.11° C | 72% | 1008.7 hPa | - | - | - | - |
| 1777831633 | 6.67° C | 74% | 1009 hPa | - | - | - | - |
| 1777830433 | 6.67° C | 75% | 1008.8 hPa | - | - | - | - |
| 1777829239 | 6.67° C | 75% | 1008.7 hPa | - | - | - | - |
| 1777828033 | 6.67° C | 74% | 1008.6 hPa | - | - | - | - |
| 1777826833 | 7.22° C | 73% | 1008.7 hPa | - | - | - | - |
| 1777825632 | 7.22° C | 70% | 1008.8 hPa | - | - | - | - |
| 1777824433 | 7.22° C | 72% | 1009 hPa | - | - | - | - |
| 1777823232 | 7.22° C | 74% | 1009.2 hPa | - | - | - | - |
| 1777822032 | 7.78° C | 70% | 1009.2 hPa | - | - | - | - |
| 1777820833 | 7.78° C | 71% | 1009.4 hPa | - | - | - | - |
| 1777819632 | 8.33° C | 72% | 1009.4 hPa | - | - | - | - |
| 1777818432 | 7.78° C | 73% | 1009.5 hPa | - | - | - | - |
| 1777817232 | 8.33° C | 73% | 1009.6 hPa | - | - | - | - |
| 1777816032 | 8.89° C | 72% | 1009.5 hPa | - | - | - | - |
| 1777814832 | 8.89° C | 72% | 1009.4 hPa | - | - | - | - |
| 1777813632 | 8.89° C | 74% | 1009.4 hPa | - | - | - | - |
| 1777812432 | 9.44° C | 74% | 1009.4 hPa | - | - | - | - |
| 1777811233 | 8.89° C | 77% | 1009.5 hPa | - | - | - | - |
| 1777810032 | 9.44° C | 74% | 1009.3 hPa | - | - | - | - |
| 1777808832 | 10° C | 72% | 1009.3 hPa | - | - | - | - |
* Rain since midnight (hover to see other rain measurements)
** Current wind speed in m/s (hover to see current wind gust speed)